Regional Weather Roundup
Issued by NWS

Home | Current Version | Previous Version | Graphics & Text | Print | Product List | Glossary On
Versions: 1 2 3 4 5 6 7 8 9 10 11 12 13 14 15 16 17 18 19 20 21 22 23 24 25 26 27 28 29 30 31 32 33 34 35 36 37 38 39 40 41 42 43 44 45 46 47 48 49 50
000
ASUS43 KOAX 100810
RWRNE

WEATHER ROUNDUP FOR NEBRASKA
NATIONAL WEATHER SERVICE OMAHA NE
200 AM CST WED FEB 10 2016

NOTES: SATELLITE DATA IS BEING USED TO AUGMENT CLOUD COVER ABOVE
       12000 FEET.
       "FAIR" INDICATES FEW OR NO CLOUDS BELOW 12,000 FEET WITH NO
       SIGNIFICANT WEATHER AND/OR OBSTRUCTIONS TO VISIBILITY.

  * THESE STATIONS DO NOT REPORT WEATHER SUCH AS RAIN...SNOW OR FOG.

NEZ001>004-019>022-054>056-100900-
NEBRASKA PANHANDLE

CITY           SKY/WX    TMP DP  RH WIND       PRES   REMARKS
SCOTTSBLUFF    CLEAR     32  24  72 N3        30.11F
ALLIANCE       CLEAR     30  24  78 W13       30.06F WCI  20
CHADRON        CLEAR     33  26  75 SW7       30.04F WCI  27
KIMBALL        CLOUDY    34  23  65 W12       30.14F WCI  25
SIDNEY         CLEAR     35  24  64 W15       30.13F WCI  25
$$

NEZ057>060-069>072-079>082-100900-
SOUTHWEST NEBRASKA

CITY           SKY/WX    TMP DP  RH WIND       PRES   REMARKS
NORTH PLATTE   CLEAR     22  21  96 NW6       30.06F WCI  14
IMPERIAL       CLEAR     38  26  62 W15       30.10F WCI  29
LEXINGTON      CLEAR     28  23  82 SW3       30.07F
MCCOOK         CLEAR     30  26  85 W9        30.09F WCI  22
OGALLALA       CLEAR     32  25  75 W10       30.09F WCI  24
$$

NEZ005>010-023>029-035>040-094-100900-
NORTH CENTRAL NEBRASKA

CITY           SKY/WX    TMP DP  RH WIND       PRES   REMARKS
VALENTINE      CLEAR     30  27  88 W7        29.97F WCI  23
AINSWORTH      CLEAR     32  27  84 SW3       29.98F
BROKEN BOW     CLOUDY    33  28  81 W3        30.03F
O`NEILL        CLOUDY    30  25  83 CALM      30.00F
ORD            CLOUDY    32  26  78 SW10      30.01F WCI  24
THEDFORD       CLEAR     32  31  94 SW7       30.02F WCI  26
$$

NEZ041-046>049-061>064-073>077-083>087-100900-
SOUTH CENTRAL NEBRASKA

CITY           SKY/WX    TMP DP  RH WIND       PRES   REMARKS
GRAND ISLAND   CLOUDY    27  22  81 S7        30.08F WCI  19
AURORA         CLOUDY    25  19  78 S13       30.08F WCI  14
HASTINGS       CLOUDY    28  21  75 SW8       30.08F WCI  20
HEBRON         CLOUDY    27  18  69 S6        30.15F WCI  20
HOLDREGE       CLEAR     28  23  81 SW8       30.07F WCI  20
YORK           CLOUDY    27  19  74 SW12      30.11F WCI  16
$$

NEZ011>018-030>034-042>045-100900-
NORTHEAST NEBRASKA

CITY           SKY/WX    TMP DP  RH WIND       PRES   REMARKS
NORFOLK        CLOUDY    27  18  69 S15       30.05F WCI  15
ALBION         CLOUDY    26  19  77 S3        30.05F
BLAIR          CLOUDY    19  15  82 S6        30.13F WCI  11
COLUMBUS *     CLOUDY    27  10  50 S10       30.09F WCI  17
FREMONT        CLOUDY    22  14  72 S3        30.13F
WAYNE          CLOUDY    23  17  78 S9        30.06F WCI  13
$$

NEZ050>053-065>068-078-088>093-100900-
SOUTHEAST NEBRASKA

CITY           SKY/WX    TMP DP  RH WIND       PRES   REMARKS
LINCOLN        CLOUDY    24  17  74 S6        30.15F WCI  17
OMAHA EPPLEY   CLOUDY    20  15  81 S7        30.16F WCI  11
BEATRICE       CLOUDY    26  16  67 SW7       30.17S WCI  18
FALLS CITY     CLOUDY    21  13  71 S5        30.20F WCI  15
NEBRASKA CITY  CLOUDY    20  16  84 S3        30.17F
PLATTSMOUTH    CLOUDY    21  15  78 S6        30.14F WCI  13
$$

NEZ044-045-051>053-067-100900-
OMAHA AREA

CITY           SKY/WX    TMP DP  RH WIND       PRES   REMARKS
OMAHA EPPLEY   CLOUDY    20  15  81 S7        30.16F WCI  11
BLAIR          CLOUDY    19  15  82 S6        30.13F WCI  11
FREMONT        CLOUDY    22  14  72 S3        30.13F
MILLARD        CLOUDY    22  15  74 CALM      30.15F
OFFUTT AFB     CLOUDY    21  16  82 S2        30.15F
PLATTSMOUTH    CLOUDY    21  15  78 S6        30.14F WCI  13
WAHOO          CLOUDY    21  16  81 S7        30.13F WCI  12
$$



USA.gov is the U.S. government's official web portal to all federal, state and local government web resources and services.